Hourly Data Report for October 05, 2015

All times are specified in Local Standard Time (LST). Add 1 hour to adjust for Daylight Saving Time where and when it is observed.

QIKIQTARJUAQ A
NUNAVUT

67°32'48.000" N
64°01'54.000" W
5.50 m
2400577
YVM

Download Data

Hourly Data (October 2015)
Hourly Data Report for October 5, 2015
Temp Definition
°C
Dew Point Temp Definition
°C
Rel Hum Definition
%
Wind Dir Definition
10's deg

Wind Spd Definition
km/h
Visibility Definition
km
Stn Press Definition
kPa
Hmdx Definition


Wind Chill Definition


Weather Definition


TIME
00:00 Legend Double Dagger -2.6 -7.9 67   0 16.1 101.36     LegendNANA
01:00 Legend Double Dagger -2.1 -7.2 68   0 16.1 101.32     LegendNANA
02:00 Legend Double Dagger -2.6 -7.7 68 21 11 16.1 101.31   -7 LegendNANA
03:00 Legend Double Dagger -3.5 -7.5 74 5 5 16.1 101.30   -6 LegendNANA
04:00 Legend Double Dagger -2.4 -7.0 71 4 9 16.1 101.30   -6 LegendNANA
05:00 Legend Double Dagger -1.6 -6.7 68 34 21 16.1 101.28   -7 LegendNANA
06:00 Legend Double Dagger -2.1 -7.1 69 33 13 16.1 101.29   -7 LegendNANA
07:00 Legend Double Dagger -2.1 -7.4 67 31 17 16.1 101.27   -7 LegendNANA
08:00 Legend Double Dagger -1.8 -7.2 67 32 15 16.1 101.26   -7 LegendNANA
09:00 Legend Double Dagger -4.5 -9.7 67 14 8 16.1 101.24   -8 LegendNANA
10:00 Legend Double Dagger -4.9 -9.3 71   0 16.1 101.25     LegendNANA
11:00 Legend Double Dagger -4.2 -8.9 70 14 5 16.1 101.24   -6 LegendNANA
12:00 Legend Double Dagger -4.5 -8.7 73 14 5 16.1 101.26   -7 LegendNANA
13:00 Legend Double Dagger -4.9 -8.9 74 15 4 16.1 101.29   -7 LegendNANA
14:00 Legend Double Dagger -4.7 -8.5 75 21 9 16.1 101.31   -9 LegendNANA
15:00 Legend Double Dagger -5.4 -9.0 76 20 8 16.1 101.35   -9 LegendNANA
16:00 Legend Double Dagger -5.3 -9.3 73 19 13 16.1 101.38   -10 LegendNANA
17:00 Legend Double Dagger -4.5 -9.4 69 19 21 16.1 101.41   -11 LegendNANA
18:00 Legend Double Dagger -4.2 -10.2 63 19 18 16.1 101.44   -10 LegendNANA
19:00 Legend Double Dagger -4.0 -10.7 60 19 17 16.1 101.45   -10 LegendNANA
20:00 Legend Double Dagger -4.1 -10.3 62 20 18 16.1 101.48   -10 LegendNANA
21:00 Legend Double Dagger -3.7 -10.4 60 19 22 16.1 101.47   -10 LegendNANA
22:00 Legend Double Dagger -3.4 -10.3 59 19 21 16.1 101.46   -10 LegendNANA
23:00 Legend Double Dagger -2.7 -10.5 55 18 21 16.1 101.46   -9 LegendNANA

Notes on Data Quality.

Legend

  • E = Estimated
  • M = Missing
  • NA = Not Available
  • ‡ = Partner data that is not subject to review by the National Climate Archives
Date modified: